SCP
-0 -0 -0 -0 -0 0 0 0 0 0 0 0 0 0 0 0 0 0 0 0 0 0 0 0 0 0 0 0 0 0 0 0 0 0 0 0 0 0 0 0 0 0 0 0 0 0 0
-0 -0 -0 0 0 0 0 0 0 0 0 0 0 0 0 0 0 0 0 0 0 0 0 0 0 0 0 0 0 0 0 0 0 0 0 0 0 0 0 0 0 0 0 0 0 0 0
0 0 0 0 0 0 0 0 0 0 0 0 0 0 0 0 0 0 0 0 0 0 0 0 0 0 0 0 0 0 0 0 0 0 0 0 0 0 0 0 0 0 0 0 0 0 0
0 0 0 0 0 0 0 0 0 0 0 0 0 0 0 0 0 0 0 0 0 0 0 0 0 0 0 0 0 0 0 0 0 0 0 0 0 0 0 0 0 0 0 0 0 0 0
0 0 0 0 0 0 0 0 0 0 0 0 0 0 0 0 0 0 0 0 0 0 0 0 0 0 0 0 0 0 0 0 0 0 0 0 0 0 0 0 0 0 0 0 0 0 0
0 0 0 0 0 0 0 0 0 0 0 0 0 0 0 0 0 0 0 0 0 -0 -0 -0 0 0 0 0 0 0 0 0 0 0 0 0 0 0 0 0 0 0 0 0 0 0 0
0 0 0 0 0 0 0 0 0 0 0 0 0 0 0 0 0 0 0 -0 0 0 0 0 0 0 0 0 0 0 0 0 0 0 0 0 0 0 0 0 0 0 0 0 0 0 0
0 0 0 0 0 0 0 0 0 0 -0 0 0 0 0 0 0 0 0 0 0 0 0 0 0 0 0 0 0 0 0 0 0 0 0 0 0 0 0 0 0 0 0 0 0 0 0
0 0 0 0 0 0 0 0 0 0 0 0 0 0 0 0 0 0 0 0 0 0 -0 -0 0 0 0 0 0 0 0 0 0 0 0 0 0 0 0 0 0 0 0 0 0 0 0
0 0 0 0 0 0 0 0 -0 -0 0 0 0 0 0 0 0 0 0 0 0 0 -0 -0 -0 0 0 0 0 0 0 0 0 0 0 0 0 0 0 0 0 0 0 0 0 0 0
0 0 0 0 0 0 0 0 0 -0 -0 -0 -0 0 0 0 0 0 0 0 0 0 0 0 0 0 0 0 0 0 0 0 0 0 0 0 0 0 0 0 0 0 0 0 0 0 0
0 0 0 0 0 0 0 0 0 0 0 0 0 0 0 0 0 0 0 0 0 0 0 0 0 0 0 0 0 0 0 0 0 0 0 0 0 0 0 0 0 0 0 0 0 0 -0
0 0 0 0 0 0 0 0 0 0 0 0 0 0 0 0 0 0 0 0 0 0 0 0 0 0 0 0 0 0 0 0 0 0 0 0 0 0 0 0 0 0 0 0 0 0 -0
0 0 0 0 0 0 0 0 0 0 0 0 0 0 0 0 0 0 0 0 0 0 0 0 0 0 0 0 0 0 0 0 0 0 0 0 0 0 0 0 0 0 0 0 0 0 0
0 0 0 0 0 0 0 0 0 0 0 0 0 0 0 0 0 0 0 0 0 0 0 0 0 -0 -0 -0 0 0 0 0 0 0 0 0 0 0 0 0 0 0 0 0 0 0 0
0 0 0 0 0 0 0 0 0 0 0 0 0 0 0 0 0 0 0 0 0 0 0 0 -0 -0 -0 -0 -0 0 0 0 0 0 0 0 0 0 0 0 0 0 0 0 0 0 0
0 0 0 0 0 0 0 -0 0 0 0 0 0 0 0 0 0 0 0 0 0 0 0 0 0 0 -0 -0 -0 0 0 0 0 0 0 0 0 0 0 0 0 0 0 0 0 0 0
0 0 0 0 0 0 0 0 0 0 0 0 0 0 0 -0 0 0 -0 -0 0 0 0 0 0 -0 -0 0 -0 -0 0 0 0 0 0 0 0 0 0 0 0 0 0 0 0 0 0
0 0 0 0 0 0 0 0 0 0 0 0 0 0 0 0 -0 0 0 0 0 0 -0 -0 0 0 0 0 -0 -0 -0 -0 0 0 0 0 0 0 0 0 0 0 0 0 0 0 0
0 0 0 0 0 0 0 0 0 0 0 0 0 0 0 0 -0 -0 0 -0 -0 -0 0 0 -0 0 0 0 -0 -0 -0 -0 -0 0 0 0 0 0 0 0 0 0 0 0 0 0 0
0 0 0 0 0 0 0 0 0 0 0 0 0 0 0 -0 0 -0 0 -0 0 -0 -0 0 -0 -0 0 -0 0 -0 -0 -0 -0 -0 0 0 0 0 0 0 0 0 0 0 0 0 0
0 0 0 0 0 0 0 0 0 0 0 0 0 0 0 0 0 0 0 -0 -0 -0 -0 -0 -0 -0 -0 -0 -0 0 0 -0 -0 -0 0 0 0 0 0 0 0 0 0 0 0 0 -0
0 0 0 0 0 0 0 0 0 0 0 0 0 0 0 0 0 0 0 0 0 0 -0 0 -0 -0 -0 0 -0 -0 -0 0 0 -0 0 0 0 0 0 0 0 0 0 0 0 0 0
0 0 0 0 0 0 0 0 0 0 0 0 0 0 0 0 0 0 0 -0 -0 0 0 0 -0 -0 -0 0 0 -0 0 -0 -0 -0 -0 0 0 0 0 0 0 0 -0 0 0 0 0
0 0 0 0 0 0 0 0 0 0 0 0 0 0 0 0 0 0 0 -0 0 0 0 0 0 0 -0 0 -0 -0 -0 -0 -0 -0 -0 -0 0 0 0 0 0 0 0 0 0 0 0
0 0 0 0 0 0 0 0 0 0 0 0 0 0 0 0 0 0 0 0 0 0 0 0 0 -0 -0 0 0 -0 -0 -0 -0 -0 -0 -0 0 0 0 0 0 0 0 0 0 0 0
0 0 0 0 0 0 0 0 0 0 0 0 0 0 0 0 0 0 0 0 0 0 0 0 0 0 -0 0 0 0 -0 -0 0 -0 -0 -0 0 0 0 0 0 0 0 0 0 0 0
0 0 0 0 0 -0 -0 0 0 0 0 0 0 0 0 0 0 0 0 0 0 0 0 0 0 0 -0 -0 0 0 0 0 0 0 0 0 0 0 0 0 0 0 0 0 0 0 0
0 0 0 0 0 -0 -0 -0 0 0 0 0 0 0 0 0 0 0 0 -0 -0 -0 0 0 0 -0 0 0 0 -0 0 -0 0 0 0 0 0 0 0 0 0 0 0 0 0 0 0
Wind_Speed_500mb
29 29 29 29 32 36 36 37 37 38 39 40 40 41 42 43 44 44 41 39 41 44 48 47 47 45 45 29 49 14 31 24 9 7 31 50 55 44 16 15 22 15 23 38 48 51 51
31 32 32 33 34 35 36 37 39 40 41 41 41 42 43 42 43 44 42 42 41 41 44 45 41 32 34 33 63 61 73 53 36 28 11 45 41 57 18 20 15 15 34 34 24 41 55
35 36 35 37 38 38 35 37 38 39 40 42 44 46 48 48 49 49 50 48 47 44 44 43 37 27 46 88 48 41 49 75 70 62 50 33 40 40 21 4 18 13 8 15 25 38 17
36 37 39 40 41 42 42 39 41 43 42 41 41 44 47 49 51 51 51 52 54 54 56 45 36 24 37 50 55 68 69 51 58 56 48 48 30 47 18 9 6 2 5 9 10 12 17
39 38 39 40 43 43 44 40 40 44 45 46 47 48 46 47 49 51 52 54 57 53 44 35 23 20 36 29 53 66 68 80 70 54 41 23 42 29 12 11 4 3 17 14 15 17 10
42 44 43 45 44 45 43 41 43 45 44 43 45 48 52 53 49 52 55 54 40 26 16 7 12 9 35 17 25 29 24 40 58 30 42 39 23 12 10 13 29 14 12 12 24 2 8
42 38 39 41 44 43 43 44 46 47 46 46 48 49 48 49 54 54 50 55 13 5 16 16 16 34 27 28 34 17 22 26 43 33 19 24 13 38 54 41 18 29 18 21 29 5 6
42 41 43 44 46 46 45 47 47 46 45 46 48 50 49 48 48 51 43 15 9 14 24 43 60 69 76 76 37 39 28 24 25 30 21 12 54 40 23 36 38 19 27 42 32 12 8
39 41 43 45 46 47 49 50 51 48 46 46 46 47 48 49 49 39 19 9 8 35 11 32 54 35 57 52 47 65 36 24 14 25 48 53 36 26 35 29 30 38 40 36 33 9 9
41 42 44 45 45 49 53 54 54 51 47 45 45 46 47 52 35 29 34 8 23 26 7 14 10 14 16 22 20 81 53 24 13 37 32 38 44 36 33 48 38 45 34 29 28 7 10
45 44 43 44 46 52 54 56 57 52 50 46 46 48 47 42 45 29 17 22 11 1 8 4 6 5 25 22 17 24 86 50 17 21 20 23 37 55 46 42 39 23 20 24 18 11 2
46 45 45 46 49 54 52 53 54 53 55 50 47 46 48 47 28 23 10 12 4 3 15 7 8 21 11 14 27 16 36 58 27 16 21 18 23 40 46 27 37 11 12 7 4 6 7
49 49 49 50 53 56 54 55 56 55 56 53 50 45 39 34 26 15 14 5 5 8 12 5 14 26 23 30 11 4 13 37 27 20 20 10 20 3 16 16 15 20 18 2 5 2 10
51 51 52 55 57 59 54 55 57 57 58 60 54 45 20 22 15 8 6 4 12 9 14 22 18 20 19 27 25 27 13 10 41 8 15 16 8 24 16 18 21 34 24 13 14 9 8
50 52 55 57 60 60 57 56 58 59 59 62 59 28 16 25 9 16 8 6 7 8 11 19 17 10 10 21 14 20 13 12 10 24 9 17 20 9 38 18 35 13 31 18 8 3 3
49 52 55 58 61 63 61 58 60 60 59 61 53 13 25 21 13 13 2 7 6 6 16 15 3 8 9 20 15 21 14 23 20 24 9 10 3 25 30 24 34 28 23 13 8 13 9
49 53 55 58 61 64 64 58 59 60 60 60 27 7 26 9 11 2 3 8 8 20 22 7 5 6 11 19 12 7 9 31 34 37 17 6 3 8 22 36 29 9 18 7 12 10 10
50 54 57 59 60 63 63 58 56 59 61 61 22 6 21 18 4 3 3 7 14 14 22 9 8 13 16 20 11 10 11 10 33 35 20 7 4 9 29 14 36 41 18 17 19 14 6
50 54 58 61 60 59 60 58 55 55 54 52 16 11 14 27 4 5 8 12 9 8 9 6 8 9 10 14 11 17 5 5 21 23 22 18 8 3 8 6 9 44 26 24 10 9 30
54 55 57 60 60 57 56 59 50 53 46 37 15 9 12 12 8 8 11 9 9 15 13 9 8 8 7 17 14 12 17 9 10 28 32 20 7 7 11 5 10 34 38 35 15 9 14
56 57 56 57 59 55 52 54 47 46 43 26 16 4 7 7 9 18 11 8 14 14 6 21 8 1 10 7 12 13 6 13 11 4 6 12 8 7 21 27 19 2 35 40 41 27 12
56 58 57 57 58 56 51 48 46 39 40 14 14 9 11 13 17 16 6 6 10 8 6 10 6 16 15 10 9 23 12 5 9 13 5 13 7 13 11 24 17 21 13 39 49 39 27
56 58 59 57 56 55 54 48 43 30 35 11 15 14 10 13 10 6 6 8 12 26 19 23 15 20 21 20 13 29 28 34 26 14 8 4 7 11 9 19 17 16 42 22 21 29 30
57 58 60 58 54 54 60 50 42 23 24 21 15 16 8 6 5 6 15 30 28 27 20 35 31 13 16 45 62 37 41 34 28 25 18 11 5 5 7 8 10 13 17 26 22 15 34
59 59 61 56 49 58 63 55 42 25 18 25 20 13 7 8 15 21 19 24 35 35 12 16 20 33 37 21 5 8 4 4 14 24 23 19 8 6 3 5 10 3 13 11 8 22 12
61 62 60 49 52 64 66 56 39 23 15 26 24 16 17 11 8 13 27 25 14 13 9 9 38 27 18 2 3 3 5 4 6 9 25 17 20 8 4 5 12 5 34 31 15 11 22
62 62 54 47 58 67 65 60 35 25 15 24 26 23 18 14 22 16 11 11 15 9 8 14 21 10 15 4 2 4 7 4 5 5 7 8 7 15 13 7 9 22 38 33 14 10 39
63 62 51 50 61 66 65 61 37 23 17 24 27 22 25 16 48 40 23 23 25 19 5 16 19 4 4 3 3 5 5 4 4 4 1 6 3 6 6 7 7 35 17 14 15 35 41
64 62 50 54 63 66 65 57 41 26 19 21 30 21 16 27 46 66 43 35 43 46 39 10 11 14 7 4 3 5 4 3 3 4 2 5 7 3 5 5 8 22 8 12 32 39 45
Wind_Direction_500mb
11 7 359 353 349 348 348 346 344 343 343 341 340 338 335 333 331 327 325 322 312 300 297 294 290 286 281 250 234 231 200 185 113 181 220 203 188 197 181 198 222 227 238 243 257 273 281
5 360 355 351 348 347 346 343 339 337 335 333 332 331 329 326 325 324 324 322 317 312 304 300 297 291 277 253 254 249 241 238 239 263 236 205 200 206 214 213 182 225 232 248 266 273 275
357 353 349 345 343 340 340 338 334 333 330 329 328 327 326 325 323 321 319 318 315 312 311 304 296 290 262 247 248 255 245 243 245 251 249 229 210 183 214 288 251 251 266 268 236 244 248
353 351 349 347 342 339 337 337 334 332 330 327 325 323 323 322 321 320 317 310 307 312 303 288 275 278 257 268 269 256 246 242 235 244 248 239 239 234 220 247 315 300 161 262 190 224 246
360 358 355 352 348 343 337 338 335 330 328 326 325 325 322 321 320 317 316 310 315 309 304 283 249 244 274 272 261 269 248 241 238 239 239 224 220 218 174 172 347 326 258 256 298 213 212
358 356 352 348 343 343 343 340 336 334 332 330 328 325 323 324 322 321 319 318 319 316 345 98 189 262 258 259 293 295 291 238 225 231 219 217 206 179 182 162 212 196 246 229 246 319 173
3 359 350 347 348 349 348 345 342 339 337 334 332 329 326 323 322 324 325 333 348 323 329 267 243 234 257 277 313 264 270 198 196 196 172 176 194 214 206 208 198 225 225 238 253 197 232
6 3 2 359 358 357 353 346 342 339 335 333 333 332 330 326 323 320 323 342 74 340 300 289 277 253 271 270 285 270 229 156 185 195 148 161 219 215 187 202 209 199 228 245 275 230 226
9 2 360 360 359 356 351 346 342 337 335 333 333 332 330 326 325 321 346 360 337 333 259 286 262 249 245 246 229 252 223 186 178 183 193 201 221 189 196 200 197 216 217 233 245 358 257
7 4 1 3 4 360 354 348 342 338 335 332 332 332 331 325 324 318 324 220 322 326 302 267 218 243 244 225 237 236 219 200 188 198 192 230 227 192 195 209 190 219 209 240 251 162 244
7 7 8 3 358 357 353 348 344 340 334 328 322 326 324 323 303 306 316 276 286 164 310 243 177 124 325 190 312 235 215 218 201 176 170 211 191 205 205 202 190 231 185 208 226 212 306
8 8 4 358 354 352 350 348 348 347 345 338 329 323 319 316 294 309 319 333 137 129 245 273 68 341 340 253 262 287 180 212 222 200 236 204 207 200 211 201 200 178 94 71 73 130 252
8 9 7 1 355 352 350 349 351 349 346 342 337 331 322 308 288 296 305 283 148 211 318 32 347 347 337 349 343 337 238 193 196 187 207 172 224 209 155 146 166 165 125 286 310 242 222
11 10 7 3 358 354 350 349 349 349 347 341 338 332 342 351 304 243 152 97 215 248 248 359 340 330 319 15 335 353 336 188 224 249 182 190 189 192 178 185 168 182 172 161 189 203 244
9 8 8 4 360 355 352 348 347 349 347 342 340 345 21 342 326 147 166 197 231 355 9 344 339 1 331 13 342 346 332 356 26 238 255 192 228 168 175 174 164 190 210 162 130 227 132
8 4 3 2 359 355 350 347 348 347 347 343 343 3 9 357 116 139 121 258 274 5 336 337 355 331 341 341 320 351 323 32 2 356 348 268 232 214 198 176 196 185 138 171 205 195 227
5 3 2 1 358 356 353 349 349 349 349 347 345 24 14 28 153 121 176 258 293 293 334 293 323 316 308 305 331 337 287 310 352 354 336 308 171 271 148 202 173 148 178 141 160 152 171
1 359 357 357 357 356 355 350 349 350 352 352 2 26 357 348 2 0 293 288 309 290 307 264 252 229 264 293 314 320 261 257 336 336 343 302 309 249 207 171 194 199 180 165 195 192 173
355 354 352 352 353 355 354 350 349 354 352 351 346 306 346 10 31 320 292 280 261 289 308 305 307 326 312 310 321 321 35 129 297 332 347 340 305 170 349 168 208 201 199 189 86 106 207
349 349 350 348 348 350 353 352 349 356 355 353 351 350 352 8 9 336 336 288 316 299 310 302 275 275 292 283 258 275 289 303 265 300 313 320 269 256 211 245 122 200 201 190 148 156 177
348 348 350 349 346 349 352 351 350 354 358 2 5 329 349 328 334 322 304 290 310 340 329 332 314 303 350 294 319 272 355 342 263 309 340 324 279 291 280 272 297 39 204 208 212 212 174
349 348 349 350 347 345 352 350 352 347 352 3 1 346 317 284 309 324 319 264 301 311 286 291 238 305 299 251 256 286 308 260 250 135 131 326 282 337 299 281 279 272 256 216 210 217 232
347 347 346 348 348 344 347 348 345 344 345 347 355 330 293 287 314 325 262 330 306 318 292 232 278 300 298 290 296 284 280 267 251 292 163 164 316 351 292 336 315 259 238 231 231 216 200
346 347 345 345 347 344 343 344 344 338 326 328 331 320 283 289 264 250 285 293 295 301 289 281 293 269 272 299 302 290 256 245 229 240 180 177 138 258 265 326 200 256 190 206 209 225 228
346 347 344 344 349 345 342 341 336 331 303 301 306 289 274 280 260 284 289 313 310 304 269 267 293 308 307 310 281 305 259 203 231 219 185 187 129 265 235 258 283 301 46 9 168 240 196
347 346 345 348 350 346 343 338 334 329 290 283 292 280 268 292 248 265 310 293 301 317 303 258 320 324 331 295 290 250 251 270 195 178 210 204 187 208 294 240 214 54 315 315 269 223 16
346 346 346 349 348 344 344 341 344 333 301 290 292 291 264 267 280 281 273 308 296 282 275 297 336 315 339 322 261 263 255 237 237 151 160 93 126 197 226 283 283 337 323 313 139 297 325
346 346 344 347 347 344 344 342 343 324 302 285 286 276 261 261 289 274 279 261 270 250 270 326 321 312 279 302 286 311 293 304 351 72 172 101 163 179 188 251 284 352 1 60 285 307 317
346 345 341 345 348 345 343 342 343 335 305 275 279 288 255 261 272 304 306 300 279 272 265 250 275 298 274 306 312 291 272 248 236 192 281 188 186 147 250 294 342 341 281 292 334 321 319
Wind_Speed_850mb
29 29 29 29 32 36 36 37 37 38 39 40 40 41 42 43 44 44 41 39 41 44 48 47 47 45 45 29 49 14 31 24 9 7 31 50 55 44 16 15 22 15 23 38 48 51 51
31 32 32 33 34 35 36 37 39 40 41 41 41 42 43 42 43 44 42 42 41 41 44 45 41 32 34 33 63 61 73 53 36 28 11 45 41 57 18 20 15 15 34 34 24 41 55
35 36 35 37 38 38 35 37 38 39 40 42 44 46 48 48 49 49 50 48 47 44 44 43 37 27 46 88 48 41 49 75 70 62 50 33 40 40 21 4 18 13 8 15 25 38 17
36 37 39 40 41 42 42 39 41 43 42 41 41 44 47 49 51 51 51 52 54 54 56 45 36 24 37 50 55 68 69 51 58 56 48 48 30 47 18 9 6 2 5 9 10 12 17
39 38 39 40 43 43 44 40 40 44 45 46 47 48 46 47 49 51 52 54 57 53 44 35 23 20 36 29 53 66 68 80 70 54 41 23 42 29 12 11 4 3 17 14 15 17 10
42 44 43 45 44 45 43 41 43 45 44 43 45 48 52 53 49 52 55 54 40 26 16 7 12 9 35 17 25 29 24 40 58 30 42 39 23 12 10 13 29 14 12 12 24 2 8
42 38 39 41 44 43 43 44 46 47 46 46 48 49 48 49 54 54 50 55 13 5 16 16 16 34 27 28 34 17 22 26 43 33 19 24 13 38 54 41 18 29 18 21 29 5 6
42 41 43 44 46 46 45 47 47 46 45 46 48 50 49 48 48 51 43 15 9 14 24 43 60 69 76 76 37 39 28 24 25 30 21 12 54 40 23 36 38 19 27 42 32 12 8
39 41 43 45 46 47 49 50 51 48 46 46 46 47 48 49 49 39 19 9 8 35 11 32 54 35 57 52 47 65 36 24 14 25 48 53 36 26 35 29 30 38 40 36 33 9 9
41 42 44 45 45 49 53 54 54 51 47 45 45 46 47 52 35 29 34 8 23 26 7 14 10 14 16 22 20 81 53 24 13 37 32 38 44 36 33 48 38 45 34 29 28 7 10
45 44 43 44 46 52 54 56 57 52 50 46 46 48 47 42 45 29 17 22 11 1 8 4 6 5 25 22 17 24 86 50 17 21 20 23 37 55 46 42 39 23 20 24 18 11 2
46 45 45 46 49 54 52 53 54 53 55 50 47 46 48 47 28 23 10 12 4 3 15 7 8 21 11 14 27 16 36 58 27 16 21 18 23 40 46 27 37 11 12 7 4 6 7
49 49 49 50 53 56 54 55 56 55 56 53 50 45 39 34 26 15 14 5 5 8 12 5 14 26 23 30 11 4 13 37 27 20 20 10 20 3 16 16 15 20 18 2 5 2 10
51 51 52 55 57 59 54 55 57 57 58 60 54 45 20 22 15 8 6 4 12 9 14 22 18 20 19 27 25 27 13 10 41 8 15 16 8 24 16 18 21 34 24 13 14 9 8
50 52 55 57 60 60 57 56 58 59 59 62 59 28 16 25 9 16 8 6 7 8 11 19 17 10 10 21 14 20 13 12 10 24 9 17 20 9 38 18 35 13 31 18 8 3 3
49 52 55 58 61 63 61 58 60 60 59 61 53 13 25 21 13 13 2 7 6 6 16 15 3 8 9 20 15 21 14 23 20 24 9 10 3 25 30 24 34 28 23 13 8 13 9
49 53 55 58 61 64 64 58 59 60 60 60 27 7 26 9 11 2 3 8 8 20 22 7 5 6 11 19 12 7 9 31 34 37 17 6 3 8 22 36 29 9 18 7 12 10 10
50 54 57 59 60 63 63 58 56 59 61 61 22 6 21 18 4 3 3 7 14 14 22 9 8 13 16 20 11 10 11 10 33 35 20 7 4 9 29 14 36 41 18 17 19 14 6
50 54 58 61 60 59 60 58 55 55 54 52 16 11 14 27 4 5 8 12 9 8 9 6 8 9 10 14 11 17 5 5 21 23 22 18 8 3 8 6 9 44 26 24 10 9 30
54 55 57 60 60 57 56 59 50 53 46 37 15 9 12 12 8 8 11 9 9 15 13 9 8 8 7 17 14 12 17 9 10 28 32 20 7 7 11 5 10 34 38 35 15 9 14
56 57 56 57 59 55 52 54 47 46 43 26 16 4 7 7 9 18 11 8 14 14 6 21 8 1 10 7 12 13 6 13 11 4 6 12 8 7 21 27 19 2 35 40 41 27 12
56 58 57 57 58 56 51 48 46 39 40 14 14 9 11 13 17 16 6 6 10 8 6 10 6 16 15 10 9 23 12 5 9 13 5 13 7 13 11 24 17 21 13 39 49 39 27
56 58 59 57 56 55 54 48 43 30 35 11 15 14 10 13 10 6 6 8 12 26 19 23 15 20 21 20 13 29 28 34 26 14 8 4 7 11 9 19 17 16 42 22 21 29 30
57 58 60 58 54 54 60 50 42 23 24 21 15 16 8 6 5 6 15 30 28 27 20 35 31 13 16 45 62 37 41 34 28 25 18 11 5 5 7 8 10 13 17 26 22 15 34
59 59 61 56 49 58 63 55 42 25 18 25 20 13 7 8 15 21 19 24 35 35 12 16 20 33 37 21 5 8 4 4 14 24 23 19 8 6 3 5 10 3 13 11 8 22 12
61 62 60 49 52 64 66 56 39 23 15 26 24 16 17 11 8 13 27 25 14 13 9 9 38 27 18 2 3 3 5 4 6 9 25 17 20 8 4 5 12 5 34 31 15 11 22
62 62 54 47 58 67 65 60 35 25 15 24 26 23 18 14 22 16 11 11 15 9 8 14 21 10 15 4 2 4 7 4 5 5 7 8 7 15 13 7 9 22 38 33 14 10 39
63 62 51 50 61 66 65 61 37 23 17 24 27 22 25 16 48 40 23 23 25 19 5 16 19 4 4 3 3 5 5 4 4 4 1 6 3 6 6 7 7 35 17 14 15 35 41
64 62 50 54 63 66 65 57 41 26 19 21 30 21 16 27 46 66 43 35 43 46 39 10 11 14 7 4 3 5 4 3 3 4 2 5 7 3 5 5 8 22 8 12 32 39 45
Wind_Direction_850mb
11 7 359 353 349 348 348 346 344 343 343 341 340 338 335 333 331 327 325 322 312 300 297 294 290 286 281 250 234 231 200 185 113 181 220 203 188 197 181 198 222 227 238 243 257 273 281
5 360 355 351 348 347 346 343 339 337 335 333 332 331 329 326 325 324 324 322 317 312 304 300 297 291 277 253 254 249 241 238 239 263 236 205 200 206 214 213 182 225 232 248 266 273 275
357 353 349 345 343 340 340 338 334 333 330 329 328 327 326 325 323 321 319 318 315 312 311 304 296 290 262 247 248 255 245 243 245 251 249 229 210 183 214 288 251 251 266 268 236 244 248
353 351 349 347 342 339 337 337 334 332 330 327 325 323 323 322 321 320 317 310 307 312 303 288 275 278 257 268 269 256 246 242 235 244 248 239 239 234 220 247 315 300 161 262 190 224 246
360 358 355 352 348 343 337 338 335 330 328 326 325 325 322 321 320 317 316 310 315 309 304 283 249 244 274 272 261 269 248 241 238 239 239 224 220 218 174 172 347 326 258 256 298 213 212
358 356 352 348 343 343 343 340 336 334 332 330 328 325 323 324 322 321 319 318 319 316 345 98 189 262 258 259 293 295 291 238 225 231 219 217 206 179 182 162 212 196 246 229 246 319 173
3 359 350 347 348 349 348 345 342 339 337 334 332 329 326 323 322 324 325 333 348 323 329 267 243 234 257 277 313 264 270 198 196 196 172 176 194 214 206 208 198 225 225 238 253 197 232
6 3 2 359 358 357 353 346 342 339 335 333 333 332 330 326 323 320 323 342 74 340 300 289 277 253 271 270 285 270 229 156 185 195 148 161 219 215 187 202 209 199 228 245 275 230 226
9 2 360 360 359 356 351 346 342 337 335 333 333 332 330 326 325 321 346 360 337 333 259 286 262 249 245 246 229 252 223 186 178 183 193 201 221 189 196 200 197 216 217 233 245 358 257
7 4 1 3 4 360 354 348 342 338 335 332 332 332 331 325 324 318 324 220 322 326 302 267 218 243 244 225 237 236 219 200 188 198 192 230 227 192 195 209 190 219 209 240 251 162 244
7 7 8 3 358 357 353 348 344 340 334 328 322 326 324 323 303 306 316 276 286 164 310 243 177 124 325 190 312 235 215 218 201 176 170 211 191 205 205 202 190 231 185 208 226 212 306
8 8 4 358 354 352 350 348 348 347 345 338 329 323 319 316 294 309 319 333 137 129 245 273 68 341 340 253 262 287 180 212 222 200 236 204 207 200 211 201 200 178 94 71 73 130 252
8 9 7 1 355 352 350 349 351 349 346 342 337 331 322 308 288 296 305 283 148 211 318 32 347 347 337 349 343 337 238 193 196 187 207 172 224 209 155 146 166 165 125 286 310 242 222
11 10 7 3 358 354 350 349 349 349 347 341 338 332 342 351 304 243 152 97 215 248 248 359 340 330 319 15 335 353 336 188 224 249 182 190 189 192 178 185 168 182 172 161 189 203 244
9 8 8 4 360 355 352 348 347 349 347 342 340 345 21 342 326 147 166 197 231 355 9 344 339 1 331 13 342 346 332 356 26 238 255 192 228 168 175 174 164 190 210 162 130 227 132
8 4 3 2 359 355 350 347 348 347 347 343 343 3 9 357 116 139 121 258 274 5 336 337 355 331 341 341 320 351 323 32 2 356 348 268 232 214 198 176 196 185 138 171 205 195 227
5 3 2 1 358 356 353 349 349 349 349 347 345 24 14 28 153 121 176 258 293 293 334 293 323 316 308 305 331 337 287 310 352 354 336 308 171 271 148 202 173 148 178 141 160 152 171
1 359 357 357 357 356 355 350 349 350 352 352 2 26 357 348 2 0 293 288 309 290 307 264 252 229 264 293 314 320 261 257 336 336 343 302 309 249 207 171 194 199 180 165 195 192 173
355 354 352 352 353 355 354 350 349 354 352 351 346 306 346 10 31 320 292 280 261 289 308 305 307 326 312 310 321 321 35 129 297 332 347 340 305 170 349 168 208 201 199 189 86 106 207
349 349 350 348 348 350 353 352 349 356 355 353 351 350 352 8 9 336 336 288 316 299 310 302 275 275 292 283 258 275 289 303 265 300 313 320 269 256 211 245 122 200 201 190 148 156 177
348 348 350 349 346 349 352 351 350 354 358 2 5 329 349 328 334 322 304 290 310 340 329 332 314 303 350 294 319 272 355 342 263 309 340 324 279 291 280 272 297 39 204 208 212 212 174
349 348 349 350 347 345 352 350 352 347 352 3 1 346 317 284 309 324 319 264 301 311 286 291 238 305 299 251 256 286 308 260 250 135 131 326 282 337 299 281 279 272 256 216 210 217 232
347 347 346 348 348 344 347 348 345 344 345 347 355 330 293 287 314 325 262 330 306 318 292 232 278 300 298 290 296 284 280 267 251 292 163 164 316 351 292 336 315 259 238 231 231 216 200
346 347 345 345 347 344 343 344 344 338 326 328 331 320 283 289 264 250 285 293 295 301 289 281 293 269 272 299 302 290 256 245 229 240 180 177 138 258 265 326 200 256 190 206 209 225 228
346 347 344 344 349 345 342 341 336 331 303 301 306 289 274 280 260 284 289 313 310 304 269 267 293 308 307 310 281 305 259 203 231 219 185 187 129 265 235 258 283 301 46 9 168 240 196
347 346 345 348 350 346 343 338 334 329 290 283 292 280 268 292 248 265 310 293 301 317 303 258 320 324 331 295 290 250 251 270 195 178 210 204 187 208 294 240 214 54 315 315 269 223 16
346 346 346 349 348 344 344 341 344 333 301 290 292 291 264 267 280 281 273 308 296 282 275 297 336 315 339 322 261 263 255 237 237 151 160 93 126 197 226 283 283 337 323 313 139 297 325
346 346 344 347 347 344 344 342 343 324 302 285 286 276 261 261 289 274 279 261 270 250 270 326 321 312 279 302 286 311 293 304 351 72 172 101 163 179 188 251 284 352 1 60 285 307 317
346 345 341 345 348 345 343 342 343 335 305 275 279 288 255 261 272 304 306 300 279 272 265 250 275 298 274 306 312 291 272 248 236 192 281 188 186 147 250 294 342 341 281 292 334 321 319